Location: ?????????
(41.2393°N, 22.9479°E)
Time: 23:22:52
(UTC+00:00)

ATLAS 2AS CENTAUR R/B - Pass Details

Date: 17 November 2025
Orbit: 1047 x 1163 km, 63.7° (Epoch: 13 December)

Event Time Altitude Azimuth Distance (km) Brightness Sun altitude
Rises 18:19:44 0° 326° (NNW) 3,837 6.1 -36.1°
Reaches altitude 10° 18:22:25 10° 330° (NNW) 2,872 5.3 -36.6°
Enters shadow 18:25:35 29° 338° (NNW) 1,807 4.0 -37.2°
